AAL2546 KLAX-MMMX

Flight info

Callsign AAL2546
Flight time 2h 59m
Altitude 37000
Route PNDAH2 TCATE DCT PPE UJ7 HMO UT18 NABAS UT49 DGO UJ5 ZCL UT130 DARAN DARAN3A
Aircraft B38M/M-SDE1FGHILORVWXY/HB1

Departure

Time 2026-05-01 11:15
Airport Los Angeles International Airport (KLAX)

Arrival

Time 2026-05-01 14:14
Airport Mexico City Benito Juárez International Airport (MMMX)
Time Latitude Longitude Altitude Speed Heading
2026-05-01 10:43 33.93979 -118.40738 128 ft 0 kts 97°
2026-05-01 11:03 33.93979 -118.40743 128 ft 2 kts 97°
2026-05-01 11:03 33.93983 -118.40769 124 ft 2 kts 104°
2026-05-01 11:04 33.93987 -118.40782 125 ft 2 kts 110°
2026-05-01 11:04 33.93993 -118.40800 125 ft 2 kts 123°
2026-05-01 11:04 33.94004 -118.40814 124 ft 2 kts 146°
2026-05-01 11:04 33.94019 -118.40822 126 ft 2 kts 168°
2026-05-01 11:05 33.94031 -118.40824 124 ft 1 kts 174°
2026-05-01 11:05 33.94032 -118.40824 125 ft 0 kts 174°
2026-05-01 11:09 33.94028 -118.40824 123 ft 2 kts 174°
2026-05-01 11:09 33.93999 -118.40820 123 ft 9 kts 173°
2026-05-01 11:10 33.93854 -118.40741 126 ft 12 kts 143°
2026-05-01 11:10 33.93812 -118.40661 127 ft 13 kts 92°
2026-05-01 11:10 33.93822 -118.40550 127 ft 14 kts 82°
2026-05-01 11:10 33.93836 -118.40426 128 ft 16 kts 83°
2026-05-01 11:11 33.93850 -118.40284 128 ft 20 kts 83°
2026-05-01 11:11 33.93869 -118.40088 127 ft 25 kts 83°
2026-05-01 11:11 33.93892 -118.39872 128 ft 27 kts 83°
2026-05-01 11:11 33.93914 -118.39647 127 ft 28 kts 83°
2026-05-01 11:12 33.93938 -118.39412 126 ft 29 kts 83°
2026-05-01 11:12 33.93964 -118.39169 128 ft 30 kts 83°
2026-05-01 11:12 33.93989 -118.38918 128 ft 28 kts 83°
2026-05-01 11:12 33.94008 -118.38734 128 ft 23 kts 82°
2026-05-01 11:13 33.94027 -118.38541 126 ft 24 kts 83°
2026-05-01 11:13 33.94042 -118.38394 123 ft 0 kts 82°
2026-05-01 11:13 33.94045 -118.38368 126 ft 8 kts 82°
2026-05-01 11:13 33.94034 -118.38326 125 ft 2 kts 156°
2026-05-01 11:14 33.93984 -118.38322 124 ft 12 kts 191°
2026-05-01 11:14 33.93948 -118.38376 128 ft 11 kts 261°
2026-05-01 11:14 33.93921 -118.38649 128 ft 67 kts 263°
2026-05-01 11:14 33.93836 -118.39475 126 ft 129 kts 263°
2026-05-01 11:15 33.93708 -118.40742 218 ft 168 kts 263°
2026-05-01 11:15 33.93575 -118.42197 809 ft 180 kts 262°
2026-05-01 11:15 33.93420 -118.43740 1516 ft 188 kts 263°
2026-05-01 11:15 33.93264 -118.45329 2211 ft 200 kts 262°
2026-05-01 11:16 33.92699 -118.46941 2654 ft 225 kts 236°
2026-05-01 11:16 33.91637 -118.48455 3248 ft 240 kts 231°
2026-05-01 11:16 33.90512 -118.49993 4043 ft 251 kts 231°
2026-05-01 11:16 33.89299 -118.51598 4706 ft 267 kts 230°
2026-05-01 11:17 33.88059 -118.53286 5644 ft 266 kts 232°
2026-05-01 11:17 33.86767 -118.54885 6584 ft 273 kts 218°
2026-05-01 11:17 33.84979 -118.55779 7290 ft 283 kts 188°
2026-05-01 11:17 33.83005 -118.55651 8102 ft 289 kts 166°
2026-05-01 11:18 33.81012 -118.55114 8863 ft 295 kts 166°
2026-05-01 11:18 33.79002 -118.54580 9817 ft 296 kts 166°
2026-05-01 11:18 33.76964 -118.54033 10447 ft 308 kts 166°
2026-05-01 11:18 33.74806 -118.53453 10804 ft 328 kts 166°
2026-05-01 11:19 33.72559 -118.52839 11267 ft 342 kts 164°
2026-05-01 11:19 33.70408 -118.51624 11944 ft 344 kts 141°
2026-05-01 11:19 33.68769 -118.49540 12652 ft 348 kts 121°
2026-05-01 11:19 33.67591 -118.46979 13337 ft 353 kts 116°
2026-05-01 11:20 33.66434 -118.44360 14030 ft 358 kts 116°
2026-05-01 11:20 33.65268 -118.41685 14673 ft 363 kts 115°
2026-05-01 11:20 33.64097 -118.38980 15370 ft 367 kts 115°
2026-05-01 11:20 33.62915 -118.36242 16031 ft 372 kts 115°
2026-05-01 11:21 33.61721 -118.33473 16682 ft 376 kts 115°
2026-05-01 11:21 33.60512 -118.30670 17309 ft 381 kts 115°
2026-05-01 11:21 33.59288 -118.27835 17934 ft 385 kts 115°
2026-05-01 11:21 33.58047 -118.24962 18511 ft 389 kts 115°
2026-05-01 11:22 33.56791 -118.22058 19042 ft 393 kts 115°
2026-05-01 11:22 33.55529 -118.19141 19584 ft 396 kts 115°
2026-05-01 11:22 33.54270 -118.16234 20096 ft 400 kts 115°
2026-05-01 11:22 33.52989 -118.13254 20617 ft 404 kts 115°
2026-05-01 11:23 33.51696 -118.10252 21125 ft 407 kts 115°
2026-05-01 11:23 33.50391 -118.07220 21644 ft 411 kts 115°
2026-05-01 11:23 33.49074 -118.04165 22174 ft 414 kts 115°
2026-05-01 11:23 33.47740 -118.01092 22676 ft 418 kts 117°
2026-05-01 11:24 33.45992 -117.98297 23179 ft 423 kts 135°
2026-05-01 11:24 33.43812 -117.95904 23627 ft 427 kts 137°
2026-05-01 11:24 33.39360 -117.91098 24420 ft 434 kts 137°
2026-05-01 11:25 33.37096 -117.88688 24795 ft 437 kts 138°
2026-05-01 11:25 33.32515 -117.83829 25554 ft 443 kts 138°
2026-05-01 11:25 33.30196 -117.81374 25933 ft 446 kts 138°
2026-05-01 11:26 33.27864 -117.78906 26302 ft 449 kts 138°
2026-05-01 11:26 33.23149 -117.73922 27029 ft 456 kts 138°
2026-05-01 11:26 33.20763 -117.71403 27387 ft 458 kts 138°
2026-05-01 11:27 33.18376 -117.68860 27738 ft 461 kts 135°
2026-05-01 11:27 33.16379 -117.65873 28072 ft 462 kts 118°
2026-05-01 11:27 33.15084 -117.62431 28398 ft 462 kts 108°
2026-05-01 11:27 33.13958 -117.58816 28659 ft 466 kts 108°
2026-05-01 11:28 33.12855 -117.55195 29026 ft 468 kts 107°
2026-05-01 11:28 33.11757 -117.51525 29330 ft 472 kts 107°
2026-05-01 11:28 33.10658 -117.47820 29664 ft 474 kts 107°
2026-05-01 11:29 33.08452 -117.40359 30254 ft 480 kts 107°
2026-05-01 11:29 33.07337 -117.36593 30527 ft 482 kts 107°
2026-05-01 11:29 33.05092 -117.29021 31073 ft 487 kts 107°
2026-05-01 11:30 33.03958 -117.25205 31324 ft 489 kts 107°
2026-05-01 11:30 33.02820 -117.21378 31583 ft 491 kts 107°
2026-05-01 11:30 33.01671 -117.17520 31856 ft 494 kts 107°
2026-05-01 11:30 33.00519 -117.13659 32135 ft 496 kts 107°
2026-05-01 11:31 32.99357 -117.09768 32386 ft 498 kts 107°
2026-05-01 11:31 32.98194 -117.05878 32618 ft 501 kts 107°
2026-05-01 11:31 32.97020 -117.01960 32883 ft 503 kts 107°
2026-05-01 11:31 32.95846 -116.98041 33136 ft 505 kts 107°
2026-05-01 11:32 32.94663 -116.94102 33430 ft 506 kts 107°
2026-05-01 11:32 32.93493 -116.90211 33752 ft 506 kts 108°
2026-05-01 11:32 32.92306 -116.86267 34102 ft 506 kts 108°
2026-05-01 11:32 32.91117 -116.82322 34400 ft 506 kts 108°
2026-05-01 11:33 32.89931 -116.78392 34670 ft 505 kts 108°
2026-05-01 11:33 32.88740 -116.74452 34924 ft 506 kts 108°
2026-05-01 11:33 32.87555 -116.70535 35187 ft 506 kts 108°
2026-05-01 11:33 32.86364 -116.66603 35455 ft 505 kts 108°
2026-05-01 11:34 32.85171 -116.62672 35722 ft 505 kts 108°
2026-05-01 11:34 32.83979 -116.58743 35946 ft 505 kts 108°
2026-05-01 11:34 32.82783 -116.54814 36200 ft 505 kts 108°
2026-05-01 11:34 32.81588 -116.50883 36426 ft 505 kts 108°
2026-05-01 11:35 32.80231 -116.47034 36625 ft 506 kts 117°
2026-05-01 11:35 32.78627 -116.43332 36832 ft 506 kts 117°
2026-05-01 11:35 32.77021 -116.39606 36986 ft 507 kts 117°
2026-05-01 11:36 32.73791 -116.32173 36942 ft 505 kts 117°
2026-05-01 11:36 32.70565 -116.24768 36975 ft 506 kts 117°
2026-05-01 11:37 32.67331 -116.17360 36951 ft 504 kts 117°
2026-05-01 11:37 32.64097 -116.09968 36904 ft 506 kts 117°
2026-05-01 11:38 32.60851 -116.02564 36941 ft 505 kts 117°
2026-05-01 11:38 32.57625 -115.95221 36909 ft 505 kts 117°
2026-05-01 11:39 32.54376 -115.87842 36896 ft 506 kts 117°
2026-05-01 11:39 32.51113 -115.80443 36900 ft 507 kts 117°
2026-05-01 11:40 32.47840 -115.73040 36865 ft 507 kts 118°
2026-05-01 11:40 32.44563 -115.65639 36892 ft 507 kts 118°
2026-05-01 11:41 32.41291 -115.58269 36849 ft 508 kts 118°
2026-05-01 11:41 32.38017 -115.50907 36828 ft 508 kts 118°
2026-05-01 11:42 32.34721 -115.43511 36824 ft 508 kts 118°
2026-05-01 11:42 32.31416 -115.36110 36810 ft 509 kts 118°
2026-05-01 11:43 32.28109 -115.28720 36853 ft 509 kts 118°
2026-05-01 11:43 32.24793 -115.21323 36840 ft 509 kts 118°
2026-05-01 11:44 32.19811 -115.10238 36837 ft 510 kts 118°
2026-05-01 11:44 32.16483 -115.02855 36837 ft 510 kts 118°
2026-05-01 11:45 32.13143 -114.95457 36812 ft 513 kts 120°
2026-05-01 11:45 32.09787 -114.88040 36841 ft 516 kts 120°
2026-05-01 11:46 32.06402 -114.80574 36842 ft 516 kts 120°
2026-05-01 11:46 32.03019 -114.73128 36838 ft 516 kts 120°
2026-05-01 11:47 31.99627 -114.65677 36843 ft 516 kts 120°
2026-05-01 11:47 31.96238 -114.58247 36828 ft 515 kts 120°
2026-05-01 11:48 31.92843 -114.50818 36839 ft 514 kts 120°
2026-05-01 11:48 31.89454 -114.43419 36837 ft 514 kts 120°
2026-05-01 11:49 31.86056 -114.36014 36859 ft 515 kts 120°
2026-05-01 11:49 31.83217 -114.29839 36850 ft 516 kts 120°
2026-05-01 11:50 31.79239 -114.21205 36825 ft 516 kts 120°
2026-05-01 11:50 31.76377 -114.15005 36850 ft 515 kts 120°
2026-05-01 11:51 31.72964 -114.07624 36852 ft 514 kts 120°
2026-05-01 11:51 31.69540 -114.00233 36852 ft 516 kts 120°
2026-05-01 11:52 31.66103 -113.92830 36859 ft 516 kts 120°
2026-05-01 11:52 31.62686 -113.85485 36861 ft 516 kts 120°
2026-05-01 11:53 31.59246 -113.78106 36868 ft 514 kts 121°
2026-05-01 11:53 31.55808 -113.70744 36880 ft 515 kts 120°
2026-05-01 11:54 31.52360 -113.63374 36865 ft 516 kts 121°
2026-05-01 11:54 31.48904 -113.56000 36873 ft 516 kts 121°
2026-05-01 11:55 31.45447 -113.48638 36880 ft 516 kts 121°
2026-05-01 11:55 31.41991 -113.41290 36892 ft 514 kts 121°
2026-05-01 11:56 31.38552 -113.33993 36884 ft 515 kts 121°
2026-05-01 11:56 31.36622 -113.30506 36849 ft 509 kts 135°
2026-05-01 11:56 31.34097 -113.27672 36916 ft 501 kts 143°
2026-05-01 11:57 31.28881 -113.22175 36872 ft 505 kts 143°
2026-05-01 11:57 31.23598 -113.16749 36881 ft 505 kts 143°
2026-05-01 11:58 31.18310 -113.11365 36885 ft 505 kts 143°
2026-05-01 11:59 31.10341 -113.03271 36905 ft 507 kts 143°
2026-05-01 11:59 31.05024 -112.97880 36892 ft 507 kts 143°
2026-05-01 12:00 30.97057 -112.89819 36892 ft 505 kts 144°
2026-05-01 12:01 30.89135 -112.81822 36898 ft 505 kts 144°
2026-05-01 12:01 30.83825 -112.76472 36896 ft 505 kts 144°
2026-05-01 12:02 30.78528 -112.71143 36885 ft 504 kts 144°
2026-05-01 12:02 30.73231 -112.65821 36894 ft 503 kts 144°
2026-05-01 12:03 30.67925 -112.60499 36898 ft 503 kts 144°
2026-05-01 12:03 30.62631 -112.55198 36901 ft 502 kts 144°
2026-05-01 12:04 30.57377 -112.49943 36869 ft 502 kts 144°
2026-05-01 12:04 30.52087 -112.44659 36912 ft 502 kts 144°
2026-05-01 12:05 30.46774 -112.39363 36901 ft 503 kts 144°
2026-05-01 12:05 30.38812 -112.31440 36894 ft 503 kts 144°
2026-05-01 12:06 30.33493 -112.26155 36888 ft 502 kts 144°
2026-05-01 12:06 30.28191 -112.20896 36901 ft 502 kts 144°
2026-05-01 12:07 30.22930 -112.15686 36906 ft 502 kts 144°
2026-05-01 12:07 30.17622 -112.10437 36908 ft 502 kts 144°
2026-05-01 12:08 30.12297 -112.05178 36892 ft 502 kts 144°
2026-05-01 12:08 30.06988 -111.99942 36904 ft 501 kts 144°
2026-05-01 12:09 30.01725 -111.94761 36918 ft 501 kts 144°
2026-05-01 12:09 29.96419 -111.89543 36912 ft 501 kts 144°
2026-05-01 12:10 29.88459 -111.81728 36902 ft 499 kts 145°
2026-05-01 12:11 29.80524 -111.73959 36906 ft 500 kts 145°
2026-05-01 12:11 29.75221 -111.68773 36902 ft 500 kts 145°
2026-05-01 12:12 29.69919 -111.63596 36904 ft 500 kts 145°
2026-05-01 12:12 29.64624 -111.58433 36884 ft 499 kts 145°
2026-05-01 12:13 29.59322 -111.53270 36894 ft 499 kts 145°
2026-05-01 12:13 29.54063 -111.48157 36897 ft 498 kts 145°
2026-05-01 12:14 29.48761 -111.43009 36896 ft 498 kts 145°
2026-05-01 12:14 29.43469 -111.37878 36881 ft 497 kts 145°
2026-05-01 12:15 29.38181 -111.32765 36892 ft 496 kts 146°
2026-05-01 12:15 29.30116 -111.24968 36905 ft 496 kts 146°
2026-05-01 12:16 29.19541 -111.14801 36897 ft 495 kts 146°
2026-05-01 12:16 29.09029 -111.04628 36907 ft 499 kts 141°
2026-05-01 12:17 28.99243 -110.93406 36900 ft 500 kts 140°
2026-05-01 12:17 28.94569 -110.87467 36896 ft 503 kts 138°
2026-05-01 12:18 28.89775 -110.81700 36920 ft 502 kts 139°
2026-05-01 12:18 28.84935 -110.75961 36908 ft 502 kts 139°
2026-05-01 12:19 28.80107 -110.70251 36910 ft 503 kts 139°
2026-05-01 12:19 28.75247 -110.64517 36882 ft 502 kts 140°
2026-05-01 12:20 28.70373 -110.58846 36905 ft 501 kts 140°
2026-05-01 12:20 28.65488 -110.53159 36907 ft 501 kts 140°
2026-05-01 12:21 28.60641 -110.47525 36904 ft 501 kts 140°
2026-05-01 12:21 28.55756 -110.41856 36909 ft 502 kts 140°
2026-05-01 12:22 28.50861 -110.36184 36894 ft 502 kts 140°
2026-05-01 12:22 28.45970 -110.30522 36904 ft 502 kts 140°
2026-05-01 12:23 28.41066 -110.24854 36902 ft 502 kts 140°
2026-05-01 12:23 28.36156 -110.19188 36899 ft 502 kts 140°
2026-05-01 12:24 28.31285 -110.13575 36898 ft 502 kts 140°
2026-05-01 12:24 28.26382 -110.07932 36885 ft 503 kts 141°
2026-05-01 12:25 28.19009 -109.99459 36894 ft 503 kts 141°
2026-05-01 12:26 28.14120 -109.93759 36888 ft 504 kts 140°
2026-05-01 12:26 28.06812 -109.85193 36898 ft 504 kts 140°
2026-05-01 12:27 27.99485 -109.76626 36901 ft 507 kts 141°
2026-05-01 12:28 27.92128 -109.68042 36886 ft 506 kts 141°
2026-05-01 12:29 27.84770 -109.59475 36888 ft 507 kts 141°
2026-05-01 12:29 27.77388 -109.50899 36895 ft 510 kts 141°
2026-05-01 12:30 27.69959 -109.42285 36897 ft 509 kts 142°
2026-05-01 12:31 27.65046 -109.36598 36900 ft 510 kts 142°
2026-05-01 12:31 27.60099 -109.30878 36897 ft 509 kts 142°
2026-05-01 12:32 27.55119 -109.25200 36885 ft 510 kts 142°
2026-05-01 12:32 27.47622 -109.16657 36891 ft 511 kts 142°
2026-05-01 12:33 27.42622 -109.10971 36912 ft 511 kts 142°
2026-05-01 12:33 27.37624 -109.05296 36897 ft 510 kts 142°
2026-05-01 12:34 27.32623 -108.99622 36854 ft 510 kts 143°
2026-05-01 12:34 27.27644 -108.93984 36913 ft 512 kts 143°
2026-05-01 12:35 27.22625 -108.88307 36906 ft 511 kts 143°
2026-05-01 12:35 27.17611 -108.82642 36913 ft 511 kts 143°
2026-05-01 12:36 27.12598 -108.76988 36916 ft 511 kts 143°
2026-05-01 12:36 27.07583 -108.71340 36858 ft 509 kts 144°
2026-05-01 12:37 27.02566 -108.65697 36919 ft 512 kts 143°
2026-05-01 12:37 26.97553 -108.60063 36903 ft 511 kts 143°
2026-05-01 12:38 26.93373 -108.55361 36907 ft 512 kts 143°
2026-05-01 12:38 26.88329 -108.49719 36904 ft 512 kts 143°
2026-05-01 12:39 26.83291 -108.44080 36881 ft 512 kts 143°
2026-05-01 12:39 26.77447 -108.37548 36903 ft 512 kts 144°
2026-05-01 12:40 26.73225 -108.32835 36905 ft 511 kts 144°
2026-05-01 12:40 26.68219 -108.27254 36911 ft 511 kts 144°
2026-05-01 12:41 26.63174 -108.21635 36920 ft 511 kts 144°
2026-05-01 12:41 26.58245 -108.15871 36897 ft 521 kts 133°
2026-05-01 12:42 26.54003 -108.09271 36897 ft 524 kts 133°
2026-05-01 12:42 26.49759 -108.02675 36938 ft 524 kts 133°
2026-05-01 12:43 26.45530 -107.96084 36923 ft 522 kts 133°
2026-05-01 12:43 26.41285 -107.89484 36944 ft 524 kts 133°
2026-05-01 12:44 26.37032 -107.82881 36922 ft 523 kts 133°
2026-05-01 12:45 26.28544 -107.69731 36971 ft 523 kts 133°
2026-05-01 12:45 26.24326 -107.63212 36943 ft 520 kts 133°
2026-05-01 12:46 26.20091 -107.56676 36966 ft 521 kts 133°
2026-05-01 12:46 26.15871 -107.50169 36961 ft 521 kts 133°
2026-05-01 12:47 26.11610 -107.43607 36969 ft 522 kts 133°
2026-05-01 12:47 26.07359 -107.37071 36922 ft 519 kts 133°
2026-05-01 12:48 26.03128 -107.30575 37014 ft 519 kts 133°
2026-05-01 12:48 25.98898 -107.24090 36958 ft 517 kts 133°
2026-05-01 12:49 25.94662 -107.17602 36967 ft 519 kts 133°
2026-05-01 12:49 25.90447 -107.11160 36973 ft 519 kts 133°
2026-05-01 12:50 25.86214 -107.04682 37017 ft 519 kts 133°
2026-05-01 12:50 25.81988 -106.98211 37020 ft 517 kts 133°
2026-05-01 12:51 25.77764 -106.91750 36994 ft 516 kts 133°
2026-05-01 12:52 25.71432 -106.82083 37007 ft 517 kts 133°
2026-05-01 12:52 25.65084 -106.72407 37064 ft 517 kts 133°
2026-05-01 12:53 25.58742 -106.62761 37040 ft 518 kts 133°
2026-05-01 12:54 25.54524 -106.56360 37003 ft 515 kts 133°
2026-05-01 12:54 25.48176 -106.46740 37017 ft 516 kts 133°
2026-05-01 12:55 25.41804 -106.37146 37023 ft 515 kts 134°
2026-05-01 12:56 25.37502 -106.30806 37020 ft 513 kts 134°
2026-05-01 12:56 25.33238 -106.24512 36970 ft 511 kts 134°
2026-05-01 12:57 25.29019 -106.18299 37006 ft 509 kts 134°
2026-05-01 12:57 25.22652 -106.08932 36983 ft 508 kts 134°
2026-05-01 12:58 25.18405 -106.02697 36970 ft 508 kts 134°
2026-05-01 12:59 25.12060 -105.93395 36984 ft 503 kts 133°
2026-05-01 12:59 25.05749 -105.84155 36954 ft 503 kts 133°
2026-05-01 13:00 24.99426 -105.74922 36980 ft 504 kts 133°
2026-05-01 13:01 24.93116 -105.65723 36944 ft 503 kts 133°
2026-05-01 13:02 24.86780 -105.56503 36931 ft 502 kts 133°
2026-05-01 13:07 24.40053 -104.89092 36858 ft 508 kts 133°
2026-05-01 13:08 24.35758 -104.82945 36848 ft 509 kts 133°
2026-05-01 13:08 24.31444 -104.76778 36927 ft 509 kts 133°
2026-05-01 13:09 24.27133 -104.70623 36999 ft 508 kts 133°
2026-05-01 13:09 24.22828 -104.64487 37090 ft 508 kts 133°
2026-05-01 13:10 24.18520 -104.58353 37171 ft 508 kts 133°
2026-05-01 13:10 24.14246 -104.52254 37172 ft 509 kts 132°
2026-05-01 13:11 24.10049 -104.46009 37178 ft 509 kts 131°
2026-05-01 13:11 24.05843 -104.39781 37094 ft 509 kts 132°
2026-05-01 13:12 24.01621 -104.33540 37008 ft 509 kts 132°
2026-05-01 13:12 23.97406 -104.27317 36918 ft 509 kts 132°
2026-05-01 13:13 23.93187 -104.21095 36844 ft 509 kts 132°
2026-05-01 13:13 23.88996 -104.14923 36814 ft 509 kts 132°
2026-05-01 13:14 23.84769 -104.08706 36825 ft 509 kts 132°
2026-05-01 13:14 23.80544 -104.02498 36840 ft 509 kts 132°
2026-05-01 13:15 23.76314 -103.96292 36842 ft 509 kts 132°
2026-05-01 13:15 23.72085 -103.90094 36861 ft 508 kts 131°
2026-05-01 13:16 23.67875 -103.83914 36865 ft 507 kts 131°
2026-05-01 13:16 23.63652 -103.77726 36870 ft 509 kts 131°
2026-05-01 13:17 23.55182 -103.65367 36893 ft 509 kts 131°
2026-05-01 13:18 23.48862 -103.56155 36889 ft 509 kts 131°
2026-05-01 13:18 23.44628 -103.49990 36893 ft 506 kts 131°
2026-05-01 13:19 23.40408 -103.43854 36898 ft 506 kts 131°
2026-05-01 13:20 23.34080 -103.34666 36909 ft 506 kts 131°
2026-05-01 13:20 23.29847 -103.28529 36915 ft 506 kts 131°
2026-05-01 13:21 23.23501 -103.19343 36909 ft 506 kts 131°
2026-05-01 13:21 23.19301 -103.13271 36891 ft 506 kts 131°
2026-05-01 13:22 23.15087 -103.07187 36922 ft 502 kts 131°
2026-05-01 13:22 23.10886 -103.01132 36928 ft 502 kts 131°
2026-05-01 13:23 23.06682 -102.95079 36993 ft 501 kts 131°
2026-05-01 13:23 23.02481 -102.89036 37069 ft 501 kts 131°
2026-05-01 13:24 22.98274 -102.82993 37140 ft 502 kts 131°
2026-05-01 13:25 22.91954 -102.73926 37203 ft 502 kts 131°
2026-05-01 13:25 22.87339 -102.68475 37198 ft 485 kts 151°
2026-05-01 13:26 22.81759 -102.64334 37185 ft 486 kts 152°
2026-05-01 13:26 22.76146 -102.60247 37150 ft 486 kts 152°
2026-05-01 13:27 22.70514 -102.56192 37086 ft 486 kts 152°
2026-05-01 13:27 22.62067 -102.50120 36999 ft 486 kts 152°
2026-05-01 13:28 22.54583 -102.44748 36959 ft 484 kts 152°
2026-05-01 13:29 22.43353 -102.36700 36945 ft 484 kts 152°
2026-05-01 13:31 22.26530 -102.24675 36920 ft 481 kts 151°
2026-05-01 13:32 22.12575 -102.14726 36894 ft 481 kts 151°
2026-05-01 13:33 21.98669 -102.04835 36881 ft 480 kts 151°
2026-05-01 13:34 21.87546 -101.96942 36870 ft 478 kts 150°
2026-05-01 13:35 21.79212 -101.91037 36870 ft 478 kts 151°
2026-05-01 13:36 21.70880 -101.85142 36860 ft 478 kts 151°
2026-05-01 13:36 21.62568 -101.79268 36867 ft 477 kts 150°
2026-05-01 13:37 21.57135 -101.75174 36850 ft 481 kts 138°
2026-05-01 13:37 21.54996 -101.72398 36869 ft 485 kts 127°
2026-05-01 13:37 21.53078 -101.69401 36831 ft 488 kts 127°
2026-05-01 13:38 21.47416 -101.60340 36833 ft 486 kts 126°
2026-05-01 13:39 21.43685 -101.54289 36840 ft 486 kts 126°
2026-05-01 13:39 21.39979 -101.48281 36838 ft 486 kts 126°
2026-05-01 13:40 21.36248 -101.42238 36823 ft 484 kts 126°
2026-05-01 13:40 21.32540 -101.36239 36831 ft 484 kts 126°
2026-05-01 13:41 21.28817 -101.30224 36801 ft 484 kts 126°
2026-05-01 13:41 21.25097 -101.24219 36812 ft 483 kts 126°
2026-05-01 13:42 21.21378 -101.18223 36795 ft 483 kts 126°
2026-05-01 13:42 21.17666 -101.12243 36798 ft 483 kts 126°
2026-05-01 13:43 21.13943 -101.06253 36812 ft 483 kts 126°
2026-05-01 13:43 21.10243 -101.00306 36791 ft 483 kts 126°
2026-05-01 13:44 21.06410 -100.94413 36791 ft 481 kts 130°
2026-05-01 13:44 21.02316 -100.88763 36786 ft 482 kts 129°
2026-05-01 13:45 20.98243 -100.83065 36781 ft 481 kts 129°
2026-05-01 13:45 20.94172 -100.77368 36785 ft 482 kts 129°
2026-05-01 13:46 20.90108 -100.71686 36778 ft 482 kts 129°
2026-05-01 13:46 20.86034 -100.65994 36789 ft 482 kts 129°
2026-05-01 13:47 20.81960 -100.60309 36768 ft 482 kts 129°
2026-05-01 13:47 20.77889 -100.54634 36773 ft 480 kts 129°
2026-05-01 13:48 20.73874 -100.49041 36175 ft 471 kts 129°
2026-05-01 13:48 20.71897 -100.46291 35424 ft 474 kts 129°
2026-05-01 13:48 20.69885 -100.43491 34784 ft 475 kts 129°
2026-05-01 13:48 20.67888 -100.40715 34315 ft 471 kts 129°
2026-05-01 13:49 20.65904 -100.37957 33852 ft 468 kts 129°
2026-05-01 13:49 20.63925 -100.35209 33270 ft 466 kts 129°
2026-05-01 13:49 20.61952 -100.32470 32703 ft 464 kts 129°
2026-05-01 13:50 20.58057 -100.27066 32156 ft 457 kts 129°
2026-05-01 13:50 20.56125 -100.24388 31644 ft 454 kts 129°
2026-05-01 13:50 20.54199 -100.21719 31151 ft 452 kts 130°
2026-05-01 13:50 20.52285 -100.19067 30646 ft 449 kts 129°
2026-05-01 13:51 20.50383 -100.16434 30094 ft 447 kts 129°
2026-05-01 13:51 20.48485 -100.13808 29493 ft 445 kts 129°
2026-05-01 13:51 20.46604 -100.11206 28949 ft 441 kts 129°
2026-05-01 13:51 20.44748 -100.08639 28452 ft 437 kts 129°
2026-05-01 13:52 20.42903 -100.06090 27946 ft 433 kts 129°
2026-05-01 13:52 20.41091 -100.03587 27452 ft 430 kts 129°
2026-05-01 13:52 20.39248 -100.01041 26949 ft 427 kts 129°
2026-05-01 13:52 20.37461 -99.98576 26372 ft 424 kts 129°
2026-05-01 13:53 20.35661 -99.96092 25919 ft 421 kts 129°
2026-05-01 13:53 20.32096 -99.91177 25073 ft 417 kts 129°
2026-05-01 13:53 20.30326 -99.88738 24649 ft 415 kts 129°
2026-05-01 13:54 20.28575 -99.86326 24236 ft 413 kts 129°
2026-05-01 13:54 20.26820 -99.83910 23818 ft 411 kts 129°
2026-05-01 13:54 20.25074 -99.81506 23386 ft 409 kts 129°
2026-05-01 13:54 20.23334 -99.79112 22903 ft 407 kts 129°
2026-05-01 13:55 20.21390 -99.76956 22353 ft 403 kts 146°
2026-05-01 13:55 20.18958 -99.75620 21951 ft 396 kts 165°
2026-05-01 13:55 20.16288 -99.75021 21626 ft 388 kts 171°
2026-05-01 13:55 20.13640 -99.74471 21230 ft 386 kts 171°
2026-05-01 13:56 20.11011 -99.73935 20802 ft 384 kts 171°
2026-05-01 13:56 20.08402 -99.73411 20391 ft 382 kts 172°
2026-05-01 13:56 20.05798 -99.72893 19996 ft 380 kts 171°
2026-05-01 13:56 20.03199 -99.72376 19588 ft 378 kts 171°
2026-05-01 13:57 20.00619 -99.71863 19178 ft 377 kts 171°
2026-05-01 13:57 19.98910 -99.71523 18912 ft 377 kts 172°
2026-05-01 13:57 19.95468 -99.70839 18362 ft 375 kts 171°
2026-05-01 13:57 19.92901 -99.70328 17943 ft 374 kts 172°
2026-05-01 13:58 19.90330 -99.69818 17302 ft 378 kts 172°
2026-05-01 13:58 19.87741 -99.69304 16829 ft 377 kts 171°
2026-05-01 13:58 19.85220 -99.68655 16618 ft 369 kts 158°
2026-05-01 13:58 19.83124 -99.67265 16583 ft 358 kts 137°
2026-05-01 13:59 19.81621 -99.65226 16582 ft 345 kts 124°
2026-05-01 13:59 19.80286 -99.63170 16578 ft 332 kts 123°
2026-05-01 13:59 19.79400 -99.60977 16566 ft 319 kts 101°
2026-05-01 13:59 19.79402 -99.58665 16560 ft 313 kts 77°
2026-05-01 14:00 19.80219 -99.56537 16545 ft 312 kts 55°
2026-05-01 14:00 19.81596 -99.54774 16539 ft 312 kts 47°
2026-05-01 14:00 19.83061 -99.53060 16519 ft 313 kts 46°
2026-05-01 14:00 19.84537 -99.51369 16518 ft 312 kts 46°
2026-05-01 14:01 19.86029 -99.49680 16522 ft 313 kts 45°
2026-05-01 14:01 19.87527 -99.47999 16504 ft 312 kts 45°
2026-05-01 14:01 19.88877 -99.46203 16482 ft 313 kts 62°
2026-05-01 14:01 19.89567 -99.44054 16536 ft 312 kts 75°
2026-05-01 14:02 19.90142 -99.41821 16513 ft 313 kts 74°
2026-05-01 14:02 19.90713 -99.39588 16504 ft 313 kts 75°
2026-05-01 14:02 19.91273 -99.37351 16500 ft 313 kts 76°
2026-05-01 14:02 19.91505 -99.35054 16206 ft 312 kts 96°
2026-05-01 14:03 19.90922 -99.32876 16091 ft 306 kts 118°
2026-05-01 14:03 19.89649 -99.31082 15972 ft 305 kts 139°
2026-05-01 14:03 19.87878 -99.29875 15827 ft 302 kts 160°
2026-05-01 14:03 19.85846 -99.29391 15687 ft 299 kts 177°
2026-05-01 14:04 19.83771 -99.29270 15520 ft 299 kts 178°
2026-05-01 14:04 19.81715 -99.29193 15381 ft 299 kts 179°
2026-05-01 14:04 19.79636 -99.29150 15217 ft 298 kts 180°
2026-05-01 14:04 19.78234 -99.29131 15111 ft 298 kts 180°
2026-05-01 14:05 19.75494 -99.29109 14898 ft 297 kts 180°
2026-05-01 14:05 19.73428 -99.29101 14734 ft 297 kts 181°
2026-05-01 14:05 19.71372 -99.29096 14558 ft 296 kts 181°
2026-05-01 14:05 19.69311 -99.29094 14387 ft 295 kts 181°
2026-05-01 14:06 19.67275 -99.29093 14121 ft 290 kts 181°
2026-05-01 14:06 19.65282 -99.29092 13991 ft 283 kts 181°
2026-05-01 14:06 19.63356 -99.29090 13852 ft 276 kts 181°
2026-05-01 14:06 19.61459 -99.29088 13755 ft 270 kts 179°
2026-05-01 14:07 19.59624 -99.28714 13541 ft 271 kts 154°
2026-05-01 14:07 19.58074 -99.27633 13304 ft 270 kts 144°
2026-05-01 14:07 19.56544 -99.26467 13071 ft 271 kts 145°
2026-05-01 14:08 19.53529 -99.24153 12691 ft 261 kts 143°
2026-05-01 14:08 19.52086 -99.23046 12564 ft 248 kts 144°
2026-05-01 14:08 19.50633 -99.22198 12501 ft 231 kts 160°
2026-05-01 14:08 19.49139 -99.21687 12416 ft 222 kts 164°
2026-05-01 14:09 19.47636 -99.21539 12225 ft 216 kts 189°
2026-05-01 14:09 19.46172 -99.21866 11967 ft 215 kts 200°
2026-05-01 14:09 19.44833 -99.22545 11674 ft 213 kts 212°
2026-05-01 14:09 19.43560 -99.23362 11369 ft 214 kts 214°
2026-05-01 14:10 19.42213 -99.24016 11003 ft 216 kts 191°
2026-05-01 14:10 19.40724 -99.23856 10653 ft 216 kts 160°
2026-05-01 14:10 19.39388 -99.23176 10375 ft 212 kts 144°
2026-05-01 14:10 19.38391 -99.22064 10050 ft 209 kts 126°
2026-05-01 14:11 19.37574 -99.20807 9745 ft 204 kts 121°
2026-05-01 14:11 19.37380 -99.18074 9436 ft 191 kts 59°
2026-05-01 14:11 19.38055 -99.16875 9359 ft 193 kts 58°
2026-05-01 14:12 19.38735 -99.15658 9255 ft 191 kts 59°
2026-05-01 14:12 19.39391 -99.14481 9112 ft 184 kts 59°
2026-05-01 14:12 19.40015 -99.13365 8938 ft 171 kts 59°
2026-05-01 14:12 19.40619 -99.12290 8659 ft 167 kts 57°
2026-05-01 14:13 19.41220 -99.11245 8202 ft 168 kts 59°
2026-05-01 14:13 19.41612 -99.10536 7968 ft 169 kts 60°
2026-05-01 14:13 19.42405 -99.09109 7532 ft 166 kts 61°
2026-05-01 14:13 19.42991 -99.08073 7327 ft 163 kts 60°
2026-05-01 14:14 19.43518 -99.07128 7305 ft 126 kts 60°
2026-05-01 14:14 19.43857 -99.06524 7305 ft 69 kts 59°
2026-05-01 14:14 19.44042 -99.06260 7305 ft 22 kts 32°
2026-05-01 14:14 19.44172 -99.06186 7305 ft 21 kts 18°
2026-05-01 14:15 19.44263 -99.06164 7305 ft 0 kts
2026-05-01 14:15 19.44265 -99.06164 7305 ft 1 kts
2026-05-01 14:15 19.44296 -99.06164 7305 ft 9 kts 359°
2026-05-01 14:16 19.44382 -99.06197 7304 ft 19 kts 306°
2026-05-01 14:16 19.44437 -99.06334 7305 ft 12 kts 295°
2026-05-01 14:16 19.44435 -99.06448 7305 ft 21 kts 239°
2026-05-01 14:16 19.44346 -99.06607 7305 ft 30 kts 239°
2026-05-01 14:17 19.44247 -99.06782 7305 ft 25 kts 239°
2026-05-01 14:17 19.44157 -99.06940 7305 ft 25 kts 239°
2026-05-01 14:17 19.44099 -99.07048 7305 ft 25 kts 238°
2026-05-01 14:17 19.44008 -99.07208 7305 ft 25 kts 239°
2026-05-01 14:18 19.43918 -99.07368 7305 ft 25 kts 240°
2026-05-01 14:18 19.43804 -99.07570 7305 ft 18 kts 239°
2026-05-01 14:18 19.43760 -99.07615 7305 ft 10 kts 218°
2026-05-01 14:18 19.43747 -99.07665 7305 ft 7 kts 273°
2026-05-01 14:19 19.43747 -99.07697 7305 ft 0 kts 271°
2026-05-01 14:19 19.43747 -99.07703 7305 ft 0 kts 271°